Weather History for KBVN - March, 2013

Change the Weather History Date:

Thursday, March 21, 2013

  Actual Average (KOFK) Record (KOFK)
Temperature  
Mean Temperature 28 °F 39 °F  
Max Temperature 32 °F 51 °F 91 °F (1907)
Min Temperature 23 °F 28 °F -4 °F (1951)
Degree Days  
Heating Degree Days 38 26  
Month to date heating degree days 622  
Since 1 July heating degree days 5715  
Cooling Degree Days 0 0  
Month to date cooling degree days 0  
Year to date cooling degree days 0  
Moisture  
Dew Point 18 °F    
Average Humidity 69    
Maximum Humidity 83    
Minimum Humidity 55    
Precipitation  
Precipitation 0.00 in 0.06 in 0.93 in (1979)
Month to date precipitation 1.06  
Year to date precipitation 2.41  
Snow  
Snow 0.00 in 0.20 in - ()
Month to date snowfall 3.6  
Since 1 July snowfall 26.4  
Snow Depth -    
Sea Level Pressure  
Sea Level Pressure 29.93 in    
Wind  
Wind Speed 11 mph (ESE)    
Max Wind Speed 16 mph    
Max Gust Speed 22 mph    
Visibility 9 miles    
Events Snow    
T = Trace of Precipitation, MM = Missing Value Source: NWS Daily Summary

Daily Weather History Graph

Daily Weather History Graph

Search for Another Location

Airport or City:

Trip Planner

Search our weather history database for the weather conditions in past years. The results will help you decide how hot, cold, wet, or windy it might be!

Date:

Astronomy

Mar. 21, 2013 Rise Set
Actual Time 7:33 AM CDT 7:45 PM CDT
Civil Twilight 7:05 AM CDT 8:13 PM CDT
Nautical Twilight 6:33 AM CDT 8:46 PM CDT
Astronomical Twilight 5:59 AM CDT 9:19 PM CDT
Moon 2:13 PM CDT (3/21) 4:00 AM CDT (3/21)
Length of Visible Light 13h 08m
Length of Day
12h 12m
Waxing Gibbous, 69% of the Moon is Illuminated
Mar 21
Waxing Gibbous
Mar 27
Full
Apr 2
Last Quarter
Apr 10
New
Apr 18
First Quarter

Hourly Weather History & Observations

Time (CDT) Temp. Windchill Dew Point Humidity Pressure Visibility Wind Dir Wind Speed Gust Speed Precip Events Conditions
12:35 AM 26.2 °F 17.8 °F 12.9 °F 57% 30.03 in 10.0 mi ESE 8.1 mph - N/A   Mostly Cloudy
1:15 AM 26.2 °F 17.1 °F 12.2 °F 55% 30.02 in 10.0 mi ESE 9.2 mph - N/A   Mostly Cloudy
1:35 AM 25.7 °F 16.4 °F 12.2 °F 57% 30.02 in 10.0 mi ESE 9.2 mph - N/A   Scattered Clouds
1:55 AM 25.7 °F 17.1 °F 12.6 °F 58% 30.01 in 10.0 mi ESE 8.1 mph - N/A   Scattered Clouds
2:15 AM 25.7 °F 16.4 °F 12.4 °F 57% 30.01 in 10.0 mi East 9.2 mph - N/A   Mostly Cloudy
2:35 AM 25.7 °F 17.1 °F 13.3 °F 59% 30.01 in 10.0 mi ESE 8.1 mph - N/A   Overcast
2:55 AM 25.7 °F 15.1 °F 13.1 °F 59% 30.01 in 10.0 mi SE 11.5 mph - N/A   Overcast
3:15 AM 25.9 °F 13.8 °F 12.9 °F 58% 30.00 in 10.0 mi ESE 15.0 mph - N/A   Overcast
3:35 AM 25.7 °F 15.1 °F 13.1 °F 59% 29.99 in 10.0 mi ESE 11.5 mph - N/A   Overcast
3:55 AM 25.7 °F 14.6 °F 13.5 °F 60% 29.98 in 10.0 mi ESE 12.7 mph - N/A   Overcast
4:15 AM 25.7 °F 15.1 °F 13.6 °F 60% 29.97 in 10.0 mi ESE 11.5 mph - N/A   Overcast
4:35 AM 25.7 °F 15.1 °F 13.6 °F 60% 29.97 in 10.0 mi ESE 11.5 mph - N/A   Overcast
4:55 AM 25.7 °F 14.6 °F 13.6 °F 60% 29.96 in 10.0 mi ESE 12.7 mph - N/A   Overcast
5:15 AM 25.7 °F 15.1 °F 13.3 °F 59% 29.96 in 10.0 mi ESE 11.5 mph - N/A   Overcast
5:35 AM 25.7 °F 15.1 °F 13.5 °F 60% 29.95 in 10.0 mi ESE 11.5 mph - N/A   Overcast
5:55 AM 25.7 °F 15.1 °F 14.0 °F 61% 29.95 in 10.0 mi ESE 11.5 mph - N/A   Overcast
6:15 AM 25.7 °F 14.6 °F 13.8 °F 61% 29.95 in 10.0 mi ESE 12.7 mph - N/A   Overcast
6:35 AM 25.7 °F 15.7 °F 14.0 °F 61% 29.95 in 10.0 mi ESE 10.4 mph - N/A   Overcast
6:55 AM 25.3 °F 14.1 °F 14.7 °F 64% 29.95 in 7.0 mi SE 12.7 mph - N/A Snow Light Snow
7:15 AM 24.6 °F 13.8 °F 15.8 °F 69% 29.94 in 5.0 mi ESE 11.5 mph - N/A Snow Light Snow
7:35 AM 24.3 °F 13.9 °F 16.7 °F 73% 29.94 in 7.0 mi SE 10.4 mph - N/A Snow Light Snow
7:55 AM 24.1 °F 12.5 °F 17.2 °F 75% 29.94 in 7.0 mi SE 12.7 mph - N/A Snow Light Snow
8:15 AM 24.1 °F 12.0 °F 17.6 °F 76% 29.94 in 10.0 mi SE 13.8 mph - N/A   Overcast
8:35 AM 23.9 °F 12.3 °F 17.6 °F 77% 29.95 in 10.0 mi SE 12.7 mph - N/A Snow Light Snow
8:55 AM 23.9 °F 11.7 °F 18.1 °F 79% 29.94 in 7.0 mi SE 13.8 mph - N/A Snow Light Snow
9:15 AM 23.9 °F 12.9 °F 19.0 °F 82% 29.94 in 3.0 mi SE 11.5 mph - N/A Snow Light Snow
9:35 AM 23.9 °F 11.2 °F 19.2 °F 82% 29.94 in 3.0 mi SE 15.0 mph - N/A Snow Light Snow
9:55 AM 24.3 °F 12.2 °F 19.8 °F 83% 29.94 in 2.5 mi SE 13.8 mph - N/A Snow Light Snow
10:15 AM 24.4 °F 11.9 °F 19.4 °F 81% 29.94 in 5.0 mi SE 15.0 mph - N/A Snow Light Snow
10:35 AM 24.8 °F 12.9 °F 20.1 °F 82% 29.94 in 5.0 mi ESE 13.8 mph 17.3 mph N/A Snow Light Snow
10:55 AM 25.0 °F 13.1 °F 20.3 °F 82% 29.93 in 5.0 mi ESE 13.8 mph - N/A Snow Light Snow
11:35 AM 25.5 °F 12.9 °F 20.7 °F 82% 29.92 in 5.0 mi ESE 16.1 mph - N/A Snow Light Snow
11:55 AM 26.2 °F 15.2 °F 21.2 °F 81% 29.92 in 5.0 mi ESE 12.7 mph 18.4 mph N/A Snow Light Snow
12:15 PM 25.9 °F 14.8 °F 21.2 °F 82% 29.92 in 7.0 mi ESE 12.7 mph - N/A   Overcast
12:35 PM 26.2 °F 15.8 °F 21.4 °F 82% 29.92 in 7.0 mi ESE 11.5 mph - N/A   Overcast
12:55 PM 26.4 °F 16.0 °F 21.6 °F 82% 29.91 in 7.0 mi ESE 11.5 mph 17.3 mph N/A   Overcast
1:15 PM 26.2 °F 15.8 °F 21.4 °F 82% 29.91 in 10.0 mi ESE 11.5 mph 17.3 mph N/A   Overcast
1:35 PM 27.1 °F 15.9 °F 21.9 °F 81% 29.89 in 10.0 mi ESE 13.8 mph - N/A   Overcast
1:55 PM 28.9 °F 17.7 °F 22.8 °F 78% 29.88 in 10.0 mi SE 15.0 mph - N/A   Overcast
2:15 PM 29.3 °F 18.2 °F 23.0 °F 77% 29.88 in 10.0 mi ESE 15.0 mph 21.9 mph N/A   Overcast
2:35 PM 29.3 °F 19.1 °F 23.0 °F 77% 29.87 in 10.0 mi ESE 12.7 mph - N/A   Overcast
2:55 PM 29.5 °F 19.3 °F 23.0 °F 77% 29.87 in 10.0 mi ESE 12.7 mph - N/A   Overcast
3:15 PM 30.2 °F 19.8 °F 23.0 °F 75% 29.86 in 10.0 mi ESE 13.8 mph 17.3 mph N/A   Overcast
3:35 PM 30.0 °F 20.0 °F 22.6 °F 74% 29.87 in 10.0 mi SE 12.7 mph - N/A   Overcast
3:55 PM 31.3 °F 21.6 °F 23.2 °F 72% 29.87 in 10.0 mi SE 12.7 mph - N/A   Overcast
4:15 PM 31.1 °F 20.1 °F 23.0 °F 72% 29.86 in 10.0 mi ESE 16.1 mph - N/A   Overcast
4:35 PM 32.0 °F 23.0 °F 23.5 °F 71% 29.86 in 10.0 mi ESE 11.5 mph 16.1 mph N/A   Overcast
4:55 PM 30.9 °F 22.2 °F 22.6 °F 71% 29.86 in 10.0 mi East 10.4 mph - N/A   Overcast
5:15 PM 30.6 °F 20.7 °F 21.7 °F 70% 29.86 in 10.0 mi East 12.7 mph - N/A   Overcast
5:35 PM 30.6 °F 21.2 °F 21.6 °F 69% 29.87 in 10.0 mi ESE 11.5 mph 17.3 mph N/A   Overcast
5:55 PM 30.2 °F 21.3 °F 21.6 °F 70% 29.88 in 10.0 mi ESE 10.4 mph - N/A   Overcast
6:15 PM 29.8 °F 20.9 °F 21.0 °F 70% 29.88 in 10.0 mi ESE 10.4 mph - N/A   Overcast
6:35 PM 29.7 °F 20.7 °F 21.0 °F 70% 29.88 in 10.0 mi East 10.4 mph - N/A   Overcast
6:55 PM 29.3 °F 19.6 °F 20.5 °F 70% 29.88 in 10.0 mi ESE 11.5 mph - N/A   Overcast
7:15 PM 29.3 °F 21.5 °F 20.1 °F 69% 29.89 in 10.0 mi East 8.1 mph - N/A   Overcast
7:35 PM 28.9 °F 19.8 °F 19.2 °F 67% 29.89 in 10.0 mi East 10.4 mph - N/A   Overcast
7:55 PM 28.4 °F 20.4 °F 18.7 °F 67% 29.90 in 10.0 mi East 8.1 mph - N/A   Overcast
8:15 PM 28.4 °F 19.7 °F 18.5 °F 66% 29.90 in 10.0 mi East 9.2 mph - N/A   Overcast
8:35 PM 28.4 °F 20.4 °F 17.6 °F 64% 29.91 in 10.0 mi East 8.1 mph - N/A   Overcast
8:55 PM 28.2 °F 19.5 °F 17.2 °F 63% 29.92 in 10.0 mi East 9.2 mph - N/A   Overcast
9:15 PM 28.4 °F 19.7 °F 17.6 °F 64% 29.92 in 10.0 mi East 9.2 mph - N/A   Overcast
9:35 PM 28.4 °F 20.4 °F 17.6 °F 64% 29.92 in 10.0 mi East 8.1 mph - N/A   Overcast
9:55 PM 28.4 °F 19.7 °F 17.6 °F 64% 29.93 in 10.0 mi East 9.2 mph - N/A   Overcast
10:15 PM 28.4 °F 19.7 °F 16.9 °F 62% 29.94 in 10.0 mi East 9.2 mph - N/A   Overcast
10:35 PM 28.4 °F 19.7 °F 16.5 °F 61% 29.94 in 10.0 mi East 9.2 mph - N/A   Overcast
10:55 PM 28.8 °F 20.9 °F 16.7 °F 61% 29.94 in 10.0 mi East 8.1 mph - N/A   Overcast
11:15 PM 28.8 °F 19.5 °F 16.3 °F 60% 29.94 in 10.0 mi ESE 10.4 mph - N/A   Overcast
11:35 PM 28.6 °F 20.7 °F 16.7 °F 61% 29.94 in 7.0 mi ESE 8.1 mph - N/A Snow Light Snow
11:55 PM 28.4 °F 19.7 °F 17.4 °F 63% 29.94 in 7.0 mi ESE 9.2 mph - N/A   Overcast